Weather History for Montague, CA

Change the Weather History Date:

Thursday, February 21, 2013

  Actual Average Record
Temperature  
Mean Temperature 34 °F 40 °F  
Max Temperature 46 °F 53 °F 69 °F (1995)
Min Temperature 22 °F 29 °F 17 °F (2006)
Degree Days  
Heating Degree Days 31 24  
Month to date heating degree days 588 559  
Since 1 July heating degree days 3552 3711  
Cooling Degree Days 0 0  
Month to date cooling degree days 0 0  
Year to date cooling degree days 0 0  
Moisture  
Dew Point 27 °F    
Average Humidity 76    
Maximum Humidity 92    
Minimum Humidity 49    
Precipitation  
Precipitation 0.03 in 0.08 in 1.52 in (1982)
Month to date precipitation 0.29 1.47  
Year to date precipitation 1.00 3.67  
Sea Level Pressure  
Sea Level Pressure 30.22 in    
Wind  
Wind Speed 4 mph (NNE)    
Max Wind Speed 13 mph    
Max Gust Speed 14 mph    
Visibility 8 miles    
Events Fog , Snow    
T = Trace of Precipitation, MM = Missing Value Source: NWS Daily Summary

Daily Weather History Graph

Daily Weather History Graph

Search for Another Location

Airport:

Trip Planner

Search our weather history database for the weather conditions in past years. The results will help you decide how hot, cold, wet, or windy it might be!

Date:

Astronomy

Feb. 21, 2013 Rise Set
Actual Time 6:56 AM PST 5:51 PM PST
Civil Twilight 6:28 AM PST 6:19 PM PST
Nautical Twilight 5:55 AM PST 6:51 PM PST
Astronomical Twilight 5:23 AM PST 7:23 PM PST
Moon 2:08 PM PST (2/21) 4:07 AM PST (2/21)
Length of Visible Light 11h 51m
Length of Day
10h 54m
Waxing Gibbous, 84% of the Moon is Illuminated
Feb 21
Waxing Gibbous
Feb 25
Full
Mar 4
Last Quarter
Mar 11
New
Mar 19
First Quarter

Hourly Weather History & Observations

Time (PST) Temp. Windchill Dew Point Humidity Pressure Visibility Wind Dir Wind Speed Gust Speed Precip Events Conditions
12:16 AM 33.8 °F 27.0 °F 30.2 °F 87% 30.06 in 3.0 mi NNE 8.1 mph - 0.00 in Snow Light Snow
12:26 AM 33.8 °F 27.0 °F 30.2 °F 87% 30.07 in 2.0 mi North 8.1 mph - 0.01 in Snow Light Snow
12:32 AM 33.8 °F 24.8 °F 30.2 °F 87% 30.09 in 1.8 mi North 12.7 mph - 0.01 in Snow Light Snow
12:43 AM 32.0 °F 25.6 °F 30.2 °F 93% 30.08 in 0.5 mi North 6.9 mph - 0.03 in Fog , Snow Snow
12:47 AM 32.0 °F 25.6 °F 30.2 °F 93% 30.08 in 1.0 mi North 6.9 mph - 0.03 in Snow Light Snow
12:51 AM 32.0 °F 26.4 °F 30.2 °F 93% 30.08 in 3.0 mi North 5.8 mph - 0.03 in Snow Light Snow
12:53 AM 32.0 °F 25.6 °F 30.9 °F 96% 30.15 in 5.0 mi NNE 6.9 mph - 0.03 in Snow Light Snow
1:53 AM 30.0 °F 23.2 °F 28.0 °F 92% 30.17 in 10.0 mi NNE 6.9 mph - 0.00 in   Mostly Cloudy
2:53 AM 28.0 °F 22.8 °F 24.1 °F 85% 30.18 in 10.0 mi NE 4.6 mph - N/A   Clear
3:53 AM 24.1 °F - 21.9 °F 91% 30.20 in 10.0 mi Calm Calm - N/A   Overcast
4:53 AM 26.1 °F 20.5 °F 23.0 °F 88% 30.22 in 10.0 mi West 4.6 mph - N/A   Overcast
5:53 AM 27.0 °F 21.6 °F 24.1 °F 89% 30.24 in 10.0 mi SE 4.6 mph - N/A   Overcast
6:53 AM 25.0 °F - 23.0 °F 92% 30.26 in 10.0 mi Calm Calm - N/A   Overcast
7:53 AM 27.0 °F - 25.0 °F 92% 30.28 in 10.0 mi Calm Calm - N/A   Overcast
8:53 AM 28.0 °F 22.8 °F 25.0 °F 88% 30.30 in 10.0 mi NNW 4.6 mph - N/A   Overcast
9:53 AM 33.1 °F - 28.0 °F 82% 30.29 in 10.0 mi Calm Calm - N/A   Scattered Clouds
10:53 AM 37.9 °F - 28.9 °F 70% 30.27 in 10.0 mi Calm Calm - N/A   Clear
11:53 AM 41.0 °F 38.0 °F 26.1 °F 55% 30.28 in 10.0 mi ESE 4.6 mph - N/A   Mostly Cloudy
12:53 PM 42.1 °F - 25.0 °F 51% 30.26 in 10.0 mi Calm Calm - N/A   Overcast
1:53 PM 43.0 °F - 25.0 °F 49% 30.25 in 10.0 mi Calm Calm - N/A   Mostly Cloudy
2:53 PM 45.0 °F 41.8 °F 26.1 °F 48% 30.25 in 10.0 mi ENE 5.8 mph - N/A   Mostly Cloudy
3:53 PM 44.1 °F - 26.1 °F 49% 30.25 in 10.0 mi Calm Calm - N/A   Mostly Cloudy
4:53 PM 44.1 °F - 26.1 °F 49% 30.24 in 10.0 mi Calm Calm - N/A   Overcast
5:53 PM 43.0 °F 40.3 °F 27.0 °F 53% 30.25 in 10.0 mi North 4.6 mph - N/A   Overcast
6:53 PM 39.0 °F 33.4 °F 28.0 °F 65% 30.27 in 10.0 mi North 8.1 mph - N/A   Scattered Clouds
7:53 PM 39.0 °F 34.0 °F 28.9 °F 67% 30.27 in 10.0 mi North 6.9 mph - N/A   Overcast
8:53 PM 37.9 °F 33.5 °F 28.9 °F 70% 30.29 in 10.0 mi NNE 5.8 mph - N/A   Overcast
9:53 PM 37.0 °F 33.3 °F 28.9 °F 73% 30.28 in 10.0 mi NE 4.6 mph - N/A   Overcast
10:53 PM 36.0 °F 30.3 °F 28.9 °F 76% 30.28 in 10.0 mi NNW 6.9 mph - N/A   Mostly Cloudy
11:53 PM 33.1 °F 27.7 °F 27.0 °F 78% 30.29 in 10.0 mi North 5.8 mph - N/A   Clear